Miscellaneous Local Product
Issued by NWS Hastings, NE

Home | Current Version | Previous Version | Graphics & Text | Print | Product List | Glossary On
Versions: 1 2 3 4 5 6 7 8 9 10 11 12 13 14 15 16 17 18 19 20 21 22 23 24 25 26 27 28 29 30 31 32 33 34 35 36 37 38 39 40 41 42 43 44 45 46 47 48 49 50
000
AXUS43 KGID 020202
MISGRI

GID CWA HOURLY WEATHER ROUNDUP
NATIONAL WEATHER SERVICE HASTINGS NE
900 PM CDT FRI AUG 01 2014

NOTE: "FAIR" INDICATES FEW OR NO CLOUDS BELOW 12,000 FEET WITH NO
SIGNIFICANT WEATHER AND/OR OBSTRUCTIONS TO VISIBILITY.

...SOUTH CENTRAL NEBRASKA...

CITY           SKY/WX    TMP DP  RH WIND       PRES   REMARKS
GRAND ISLAND   CLEAR     73  61  65 E3        30.10S
HASTINGS       CLEAR     72  58  61 E5        30.10S
KEARNEY        CLEAR     72  57  60 E8        30.11S
ORD            CLEAR     73  58  59 SE7       30.08S
YORK           CLEAR     72  66  83 E5        30.08F
AURORA         CLEAR     71  66  85 CALM      30.09S
LEXINGTON      CLEAR     79  62  56 SE7       30.11R
HOLDREGE       CLEAR     72  62  71 E9        30.10S
HEBRON         CLEAR     75  62  64 N3        30.07R

...NEBRASKA PANHANDLE...

CITY           SKY/WX    TMP DP  RH WIND       PRES   REMARKS
CHADRON        MOCLDY    79  47  32 SE7       30.08R
ALLIANCE       CLOUDY    80  41  24 SW6       30.13S
SCOTTSBLUFF    CLEAR     81  53  37 E6        30.13S
SIDNEY         PTCLDY    74  42  31 S8        30.18S

...WESTERN AND NORTH CENTRAL NEBRASKA...

CITY           SKY/WX    TMP DP  RH WIND       PRES   REMARKS
VALENTINE      TSTM      74  58  57 NW25G38   30.10R
AINSWORTH      PTCLDY    78  56  47 SE13      30.07S
ONEILL         CLEAR     76  59  54 E7        30.09S
BROKEN BOW     CLEAR     74  61  63 SE8       30.10R
IMPERIAL       PTCLDY    77  53  43 S6        30.13R
NORTH PLATTE   CLEAR     71  61  70 E8        30.09S
MCCOOK         PTCLDY    78  58  49 E8        30.10S

...EASTERN NEBRASKA...

CITY           SKY/WX    TMP DP  RH WIND       PRES   REMARKS
NORFOLK        CLEAR     72  60  66 S5        30.08R
SO SIOUX CITY  CLEAR     73  62  68 E3        30.07S
TEKAMAH        CLEAR     73  65  75 E6        30.07S
ALBION         CLEAR     71  61  70 CALM      30.10S
OMAHA EPPLEY   PTCLDY    77  63  61 CALM      30.07R
MILLARD        CLEAR     77  62  59 CALM      30.07R
LINCOLN        CLEAR     77  58  51 E5        30.08R
NEBRASKA CITY  CLEAR     73  62  67 CALM      30.07S
BEATRICE       MOCLDY    74  63  67 E6        30.07R
FALLS CITY     CLEAR     75  62  64 E3        30.04S

...NORTHERN KANSAS...

CITY           SKY/WX    TMP DP  RH WIND       PRES   REMARKS
GOODLAND       MOCLDY    73  53  49 S8        30.17S
HILL CITY      PTCLDY    78  52  40 E8        30.10R
NORTON         CLEAR     73  54  49 E6        30.10R
PHILLIPSBURG   CLEAR     75  57  53 E7        30.09R
SMITH CENTER   CLEAR     73  52  46 NE9       30.09R
HAYS           PTCLDY    79  52  38 E8        30.09R
RUSSELL        CLEAR     75  55  49 NE5       30.06S
CONCORDIA      CLEAR     75  63  66 N7        30.05R
SALINA         CLEAR     80  57  45 N8        30.03R
TOPEKA         PTCLDY    79  64  60 E6        30.03R



USA.gov is the U.S. government's official web portal to all federal, state and local government web resources and services.